Retour au catalogue

STARLINK-3134

ActifCommunicationsVLEO
NORAD 49434·PAYLOAD·🇺🇸 United States

Lancé Nov 13, 2021 depuis Cape Canaveral Space Force Station

Loading…

Prochains Passages (prochaines 24 heures)

TLE

FraisSource: CelesTrak SupGP

Époque: Sep 14, 2026, 21:34 UTC

1 49434C 21104AC  26257.89909722  .00013884  00000+0  79961-3 0  2575
2 49434  53.2135  98.6748 0002519 100.9161  16.2445 15.11913010    17

Suivez STARLINK-3134 en temps réel avec AllMySat

Download on the App Store